Regional Weather Roundup
Issued by NWS Newport/Morehead, NC

Current Version | Previous Version | Text Only | Print | Product List | Glossary Off
Versions: 1 2 3 4 5 6 7 8 9 10 11 12 13 14 15 16 17 18 19 20 21 22 23 24 25 26 27 28 29 30 31 32 33 34 35 36 37 38 39 40 41 42 43 44 45 46 47 48 49 50
000 ASUS42 KMHX 232210 RWRMHX WEATHER ROUNDUP FOR EASTERN NORTH CAROLINA NATIONAL WEATHER SERVICE NEWPORT/MOREHEAD CITY NC 600 PM EDT WED JUL 23 2014 NOTE: "FAIR" INDICATES FEW OR NO CLOUDS BELOW 12,000 FEET WITH NO SIGNIFICANT WEATHER AND/OR OBSTRUCTIONS TO VISIBILITY NCZ015>017-031-032-045>047-102-103-232300- NORTH COAST CITY SKY/WX TMP DP RH WIND PRES REMARKS EDENTON SUNNY 89 74 60 SW7 29.91F ELIZABETH CITY SUNNY 87 73 62 S10 29.90F KITTY HAWK PTCLDY 84 76 77 S6 29.91F MANTEO NOT AVBL $$ NCZ045>047-081-094-103-104-232300- CENTRAL COAST CITY SKY/WX TMP DP RH WIND PRES REMARKS FRISCO MOSUNNY 81 76 84 SW10 29.96F SWANQUARTER N/A 82 N/A N/A SW16 29.88F $$ NCZ095-097-098-100-101-232300- SOUTHERN COAST CITY SKY/WX TMP DP RH WIND PRES REMARKS BEAUFORT MOSUNNY 83 76 79 SW15 29.96F CEDAR ISLAND N/A 86 N/A N/A S8G17 30.00S JACKSONVILLE MOSUNNY 84 76 76 S10 29.96R NEWPORT NOT AVBL PINEY ISLAND PTCLDY 84 77 79 S14 29.95F WILMINGTON SUNNY 87 74 64 S12 29.97S $$ NCZ011>013-027>030-043-044-078>080-089-090>093-098-232300- COASTAL PLAIN CITY SKY/WX TMP DP RH WIND PRES REMARKS AHOSKIE SUNNY 87 73 63 S6 29.90F CLINTON CLOUDY 85 76 72 S3 29.97R ELIZABETHTOWN PTSUNNY 85 75 71 SW5 29.96F GOLDSBORO PTSUNNY 86 76 71 SW9 29.92S GREENVILLE PTSUNNY 88 73 62 SW8 29.94F HAVELOCK SUNNY 84 73 69 S13 29.96F KENANSVILLE PTSUNNY 85 74 69 W3 29.97R KINSTON PTSUNNY 90 72 55 SW9 29.94S NEW BERN MOSUNNY 87 76 69 S7 29.95F RICHLANDS MOSUNNY 86 75 70 S7 29.96R ROANOKE RAPIDS NOT AVBL ROCKY MOUNT MOSUNNY 89 74 60 SW12 29.92F WASHINGTON MOSUNNY 82 73 74 S9 29.94S WHITEVILLE PTSUNNY 84 75 75 S12 29.97S $$ AMZ130-135-150-152-154-156-158-170-250-252-270-ANZ085-086-088-633-658-670-232300- MARINE OBSERVATIONS STATION/POSITION TIME TEMP WIND PRES WAVE SWELL AIR SEA DIR/SP/G HT/PER HT/PER (UTC) (F) (DEG/KT/KT) (MB) (FT/S) (FT/S) CHESAPEAKE LIGHT NOT AVBL BUOY 44014 2200 79 79 190/ 14/ 16 1012.8 3/ 6 2/ 6 DUCK 2200 84 74 150/ 6/ 7 1012.3 2E DUCK 2200 N/A 2/ 8 OREGON INLET 2200 81 83 200/ 20/ 22 1013.6 BUOY 44095 2200 78 N/A 3/ 7 20E OREGON INLET 2100 VRB 14/ 16 N/A HATTERAS CG 2200 80 83 210/ 11/ 16 1015.0 DIAMOND BUOY 2200 VRB 21/ 25 1013.8 4/ 4 2/ 7 CAPE LOOKOUT 2100 81 200/ 12/ 15 1014.9 BEAUFORT LAB 2200 81 82 210/ 9/ 14 1014.5 30 SE NEW RIVER 2200 81 81 220/ 16/ 17 1015.3 4/ 6 2/ 9 5 SE WRIGHTSVILL 2100 78 81 200/ 16/ 17 N/A BUOY 41002 2106 82 82 220/ 14/ 16 1018.6 4/ 5 2/ 8 BUOY 41004 2200 83 83 190/ 12/ 14 1015.5 3/ 6 2/ 6 $$

USA.gov is the U.S. government's official web portal to all federal, state and local government web resources and services.